Location: Newark
(48.5667°N, 12.8167°E)
Time: 02:30:47
(UTC+00:00)

METEOR M2 - Pass Details

Date: 19 November 2019
Orbit: 818 x 828 km, 98.5° (Epoch: 07 December)

Event Time Altitude Azimuth Distance (km) Brightness Sun altitude
Exits shadow 18:15:59 20° 4° (N) 1,848 ? -27.9°
Drops below altitude 10° 18:17:37 10° 356° (N) 2,436 ? -28.2°
Sets 18:20:03 0° 351° (N) 3,372 ? -28.6°
